[[{"header":{"parameterUnit":"m.s-1","parameterCategory":1,"la1":30.2991,"la2":30.254,"lo1":-89.0895,"lo2":-89.0444,"dy":0.0017,"dx":0.0017,"nx":28,"ny":28,"refTime":"2024-12-15T03:00:00:Z","depth":0,"parameterNumber":2,"parameterNumberName":"U-component_of_WINDS"},"data":[0,0,0,0,0,0,0,0,0,0,0,0,0,0,0,0,0,0,0,0,0,0,0,0,0,0,0,0,0,0,0,0,0,0,0,0,0,0,0,0,0,0,0,0,0,0,0,0,0,0,0,0,0,0,0,0,0,0,-4.3759,-4.3758,0,-4.3738,-4.3738,-4.3737,-4.3641,-4.3639,-4.3637,-4.3635,-4.3614,-4.3616,-4.3617,0,0,0,0,0,0,0,0,0,0,0,0,0,-4.3717,-4.3718,-4.3759,-4.3758,-4.3758,-4.3738,-4.3738,-4.3737,-4.3642,-4.3639,-4.3636,-4.3634,-4.3614,-4.3616,-4.3618,0,0,0,0,0,0,0,0,0,0,0,0,0,-4.372,-4.3719,-4.3759,-4.3708,-4.3703,-4.3738,-4.3738,-4.3737,-4.3642,-4.3639,-4.3636,-4.3632,-4.3613,-4.3615,-4.3618,-4.37,0,0,-4.3625,-4.3626,0,0,0,0,0,0,0,0,-4.372,-4.3721,-4.3716,-4.3711,-4.3706,-4.3689,-4.3715,-4.3725,-4.3643,-4.3666,-4.3635,-4.3631,-4.3642,-4.3642,-4.3645,-4.3699,-4.3698,-4.3625,-4.3627,-4.3628,-4.3628,0,0,0,0,0,0,0,-4.372,-4.3722,-4.375,-4.3716,-4.371,-4.3687,-4.3683,-4.3717,-4.3673,-4.3663,-4.3656,-4.3655,-4.3639,-4.3643,-4.3644,-4.3698,-4.3625,-4.3627,-4.3629,-4.3629,-4.3819,-4.3822,0,0,0,0,0,0,-4.3727,-4.3722,-4.3751,-4.375,-4.3705,-4.369,-4.3687,-4.3698,-4.3672,-4.3665,-4.3658,-4.3651,-4.3641,-4.3641,-4.3643,-4.3737,-4.3628,-4.363,-4.3631,-4.3815,-4.382,-4.3824,0,0,0,0,0,0,-4.3726,-4.373,-4.3752,-4.3734,-4.3735,-4.3695,-4.3708,-4.3699,-4.3703,-4.3668,-4.366,-4.3671,-4.3638,-4.364,-4.3687,-4.3735,-4.3631,-4.3633,-4.3811,-4.3817,-4.3822,-4.3927,0,0,0,0,0,0,-4.3725,-4.373,-4.376,-4.3735,-4.3736,-4.3795,-4.3711,-4.3701,-4.3708,-4.3698,-4.3678,-4.3671,-4.3636,-4.3684,-4.3689,-4.3736,-4.3635,-4.3806,-4.3814,-4.382,-4.3919,-4.3935,-4.3949,0,0,0,0,0,-4.3724,-4.3791,-4.3762,-4.3766,-4.3773,-4.3798,-4.3799,-4.3756,-4.3712,-4.3742,-4.372,-4.3672,-4.373,-4.3689,-4.3694,-4.3743,-4.3803,-4.3812,-4.3819,-4.3912,-4.3932,-4.3949,0,0,0,0,0,0,-4.3822,-4.3786,-4.3755,-4.3815,-4.3811,-4.3782,-4.3819,-4.3779,-4.3787,-4.3777,-4.3724,-4.3721,-4.3776,-4.3764,-4.372,-4.3822,-4.3758,-4.3768,-4.3827,-4.3846,-4.3861,-4.3861,-4.3637,0,0,0,0,0,-4.3851,-4.3874,-4.3842,-4.3898,-4.3898,-4.3859,-4.3869,-4.3837,-4.383,-4.3827,-4.3808,-4.3804,-4.3821,-4.3833,-4.3847,-4.3918,-4.3912,-4.3954,-4.397,-4.3982,-4.399,-4.4028,-4.4046,-4.385,-4.385,-4.385,0,0,-4.391,-4.3894,-4.3911,-4.3918,-4.391,-4.3936,-4.3858,-4.3888,-4.3907,-4.3832,-4.3874,-4.3861,-4.3853,-4.3912,-4.3938,-4.3905,-4.4044,-4.3993,-4.4003,-4.4004,-4.4038,-4.4056,-4.4073,-4.3856,-4.3855,-4.3854,0,0,-4.4031,-4.4021,-4.4067,-4.4062,-4.4052,-4.4026,-4.4038,-4.4016,-4.4004,-4.4047,-4.3991,-4.4013,-4.4044,-4.404,-4.4042,-4.4165,-4.4121,-4.4171,-4.425,-4.4287,-4.4302,-4.4316,-4.4359,-4.4375,-4.418,-4.4181,-4.4181,0,-4.4105,-4.4141,-4.4096,-4.413,-4.4135,-4.4069,-4.4116,-4.4113,-4.4109,-4.4114,-4.4077,-4.4115,-4.4105,-4.4163,-4.4193,-4.4197,-4.4209,-4.4172,-4.4304,-4.4317,-4.4328,-4.4369,-4.4386,-4.4187,-4.4186,-4.4185,-4.4185,0,-4.4234,-4.426,-4.4298,-4.4296,-4.4305,-4.4346,-4.4307,-4.4323,-4.4291,-4.4269,-4.4314,-4.43,-4.431,-4.4322,-4.4291,-4.4376,-4.4356,-4.4313,-4.4247,-4.4354,-4.4391,-4.4406,-4.4195,-4.4193,-4.4191,-4.419,0,0,-4.4412,-4.4386,-4.4401,-4.4399,-4.4385,-4.4405,-4.4443,-4.4453,-4.4467,-4.4468,-4.4498,-4.4527,-4.4487,-4.449,-4.4458,-4.4491,-4.4589,-4.4443,-4.4442,-4.447,-4.4682,-4.4713,-4.4732,-4.4561,-4.4564,-4.4566,-4.4682,0,-4.4527,-4.459,-4.4551,-4.462,-4.4644,-4.4584,-4.4617,-4.4613,-4.4595,-4.4613,-4.4593,-4.4614,-4.456,-4.4561,-4.4591,-4.4571,-4.4631,-4.4562,-4.4589,-4.459,-4.4591,-4.4752,-4.4785,-4.4895,-4.4697,-4.4699,-4.4701,0,-4.4668,-4.4675,-4.4746,-4.4729,-4.4737,-4.4768,-4.4775,-4.4793,-4.4787,-4.4772,-4.4777,-4.4737,-4.4774,-4.4712,-4.4762,-4.4717,-4.4726,-4.4718,-4.4721,-4.472,-4.465,-4.4754,-4.4929,-4.4945,-4.4724,-4.4722,-4.472,0,-4.479,-4.4817,-4.4863,-4.4864,-4.4845,-4.4868,-4.4862,-4.4853,-4.4862,-4.4868,-4.4874,-4.4885,-4.4891,-4.4901,-4.4866,-4.4824,-4.4921,-4.4856,-4.4909,-4.491,-4.493,-4.4929,-4.5108,-4.494,-4.494,-4.4939,-4.4939,0,-4.4921,-4.4967,-4.4918,-4.4947,-4.4997,-4.4954,-4.5005,-4.4991,-4.4985,-4.501,-4.4959,-4.4984,-4.4938,-4.4958,-4.4932,-4.4978,-4.4981,-4.497,-4.4962,-4.4973,-4.4974,-4.4977,-4.4967,-4.4944,-4.4943,-4.4942,-4.4941,0,-4.5064,-4.5034,-4.508,-4.5059,-4.5055,-4.5093,-4.5075,-4.5101,-4.5081,-4.5113,-4.5119,-4.5087,-4.5108,-4.5076,-4.5094,-4.5076,-4.5139,-4.512,-4.5141,-4.5135,-4.519,-4.5184,-4.5374,-4.5397,-4.5216,-4.5218,-4.522,0,-4.5148,-4.5182,-4.5166,-4.5179,-4.5175,-4.5198,-4.5207,-4.5167,-4.5179,-4.5176,-4.5203,-4.522,-4.5232,-4.527,-4.5248,-4.5262,-4.5242,-4.5308,-4.5244,-4.5255,-4.5242,-4.5239,-4.5243,-4.5321,-4.5323,-4.5325,-4.5326,0,-4.5301,-4.5285,-4.53,-4.5311,-4.5324,-4.5331,-4.5333,-4.5348,-4.5305,-4.5322,-4.5343,-4.5353,-4.5372,-4.539,-4.5399,-4.5392,-4.5353,-4.5347,-4.536,-4.5371,-4.5381,-4.5375,-4.5175,-4.5342,-4.534,-4.5339,-4.5338,-4.5338,-4.5416,-4.5444,-4.5437,-4.5456,-4.5455,-4.5459,-4.5482,-4.5466,-4.5483,-4.5495,-4.5471,-4.55,-4.5495,-4.5502,-4.5501,-4.5522,-4.5493,-4.5512,-4.5517,-4.5522,-4.553,-4.5379,-4.5524,-4.5524,-4.5523,-4.5523,-4.5522,0,-4.5565,-4.5559,-4.5577,-4.5583,-4.5599,-4.5561,-4.5563,-4.5578,-4.5604,-4.5603,-4.5616,-4.5642,-4.566,-4.5641,-4.5656,-4.5677,-4.5659,-4.5682,-4.5679,-4.5678,-4.5555,-4.5542,-4.5696,-4.5696,-4.5696,-4.5696,-4.5696,-4.5696,-4.5644,-4.5689,-4.5673,-4.5717,-4.571,-4.5737,-4.5742,-4.5746,-4.5745,-4.5776,-4.5791,-4.5779,-4.5771,-4.5785,-4.58,-4.5794,-4.5801,-4.583,-4.5818,-4.5703,-4.5686,-4.567,-4.5657,-4.5833,-4.5833,-4.5938,-4.5939,-4.594]},{"header":{"parameterUnit":"m.s-1","parameterCategory":1,"la1":30.2991,"la2":30.254,"lo1":-89.0895,"lo2":-89.0444,"dy":0.0017,"dx":0.0017,"nx":28,"ny":28,"refTime":"2024-12-15T03:00:00:Z","depth":0,"parameterNumber":3,"parameterNumberName":"V-component_of_WINDS"},"data":[0,0,0,0,0,0,0,0,0,0,0,0,0,0,0,0,0,0,0,0,0,0,0,0,0,0,0,0,0,0,0,0,0,0,0,0,0,0,0,0,0,0,0,0,0,0,0,0,0,0,0,0,0,0,0,0,0,0,0.172,0.1721,0,0.1861,0.1863,0.1865,0.1996,0.1998,0.2,0.2001,0.2145,0.2148,0.215,0,0,0,0,0,0,0,0,0,0,0,0,0,0.1563,0.1565,0.172,0.1722,0.1723,0.1861,0.1863,0.1865,0.1996,0.1998,0.2,0.2002,0.2145,0.2147,0.215,0,0,0,0,0,0,0,0,0,0,0,0,0,0.166,0.1566,0.172,0.1805,0.1814,0.1861,0.1863,0.1866,0.1996,0.1998,0.2001,0.2003,0.2144,0.2147,0.215,0.2123,0,0,0.2161,0.2163,0,0,0,0,0,0,0,0,0.1655,0.1666,0.1791,0.18,0.181,0.1914,0.1861,0.1952,0.1995,0.1927,0.2001,0.2004,0.2066,0.2076,0.2097,0.213,0.2136,0.2161,0.2164,0.2165,0.2166,0,0,0,0,0,0,0,0.1648,0.1661,0.1776,0.1793,0.1804,0.1837,0.1853,0.1879,0.1981,0.1933,0.1943,0.1958,0.2072,0.2094,0.2102,0.2138,0.2161,0.2164,0.2167,0.2168,0.2157,0.2155,0,0,0,0,0,0,0.1628,0.1654,0.1771,0.178,0.1737,0.1838,0.1856,0.1878,0.1981,0.1999,0.1956,0.1963,0.2087,0.2098,0.2107,0.2084,0.2165,0.2168,0.217,0.216,0.2157,0.2154,0,0,0,0,0,0,0.1624,0.1637,0.1766,0.172,0.1739,0.1838,0.1861,0.1879,0.1902,0.1998,0.2017,0.1959,0.2089,0.2102,0.2119,0.2091,0.217,0.2173,0.2162,0.2159,0.2155,0.2035,0,0,0,0,0,0,0.1619,0.1635,0.1626,0.1719,0.1741,0.1774,0.1859,0.188,0.1907,0.1919,0.2007,0.2024,0.2092,0.2113,0.2122,0.2097,0.2176,0.2165,0.2161,0.2157,0.2042,0.2028,0.2016,0,0,0,0,0,0.1613,0.1586,0.1624,0.1638,0.1731,0.1772,0.1785,0.1864,0.1904,0.1896,0.1958,0.2021,0.2092,0.2113,0.2125,0.21,0.2168,0.2162,0.2157,0.2048,0.2031,0.2016,0,0,0,0,0,0,0.1486,0.1599,0.1644,0.1646,0.1698,0.1795,0.1786,0.1843,0.1886,0.1895,0.1991,0.201,0.2016,0.206,0.2082,0.208,0.2138,0.2135,0.2052,0.2036,0.2023,0.2013,0.2179,0,0,0,0,0,0.1458,0.1482,0.158,0.1572,0.1597,0.1686,0.1707,0.1764,0.1823,0.1846,0.1909,0.1963,0.1999,0.2019,0.2057,0.2049,0.2071,0.2038,0.2024,0.2013,0.201,0.2011,0.1998,0.2137,0.2137,0.2137,0,0,0.1401,0.1466,0.1475,0.1548,0.1596,0.162,0.1704,0.1725,0.1744,0.1849,0.1869,0.1917,0.1984,0.1988,0.1994,0.2025,0.1976,0.2006,0.1997,0.2,0.2004,0.199,0.1979,0.2133,0.2134,0.2134,0,0,0.131,0.136,0.1361,0.1407,0.1478,0.1538,0.1537,0.1625,0.1662,0.1683,0.1763,0.1786,0.1844,0.1889,0.1919,0.1845,0.1905,0.1854,0.1786,0.1786,0.1775,0.1766,0.1741,0.1731,0.185,0.185,0.185,0,0.123,0.1269,0.1353,0.137,0.14,0.1496,0.1498,0.1538,0.1617,0.1636,0.167,0.1746,0.1797,0.1815,0.1797,0.1817,0.1821,0.1845,0.1769,0.1761,0.1754,0.1731,0.1722,0.1843,0.1844,0.1845,0.1845,0,0.1168,0.1193,0.1184,0.126,0.1289,0.1297,0.1383,0.1403,0.1456,0.1513,0.1534,0.1599,0.1652,0.166,0.1713,0.1685,0.1703,0.1751,0.1812,0.1733,0.1713,0.1705,0.1834,0.1836,0.1838,0.184,0,0,0.1001,0.1123,0.1119,0.1155,0.1241,0.1262,0.1275,0.1327,0.1343,0.1394,0.1408,0.1454,0.1501,0.1535,0.1593,0.1592,0.1532,0.1642,0.1645,0.1621,0.1507,0.1471,0.146,0.1571,0.157,0.1569,0.1503,0,0.0926,0.0956,0.1032,0.1038,0.1064,0.1155,0.1167,0.1221,0.1274,0.1303,0.1361,0.1394,0.1451,0.1473,0.1476,0.1538,0.151,0.1544,0.1586,0.1587,0.1568,0.145,0.1412,0.1346,0.1495,0.1494,0.1493,0,0.0842,0.0888,0.0897,0.0983,0.0996,0.1005,0.106,0.1086,0.1149,0.1188,0.1226,0.1291,0.131,0.1364,0.1393,0.1414,0.1436,0.1469,0.1468,0.1477,0.1536,0.1457,0.1327,0.1318,0.1482,0.1483,0.1483,0,0.0722,0.0786,0.0801,0.0828,0.0928,0.0932,0.0974,0.1039,0.1066,0.1113,0.1132,0.118,0.1207,0.1244,0.132,0.1352,0.1341,0.1401,0.1374,0.1372,0.1369,0.1369,0.1243,0.1379,0.1379,0.1379,0.138,0,0.0631,0.0633,0.0748,0.0757,0.0763,0.085,0.0853,0.0904,0.0961,0.0982,0.1063,0.108,0.1179,0.1208,0.1268,0.1283,0.1294,0.1327,0.1343,0.1321,0.1317,0.1338,0.1345,0.1377,0.1378,0.1378,0.1378,0,0.0499,0.0576,0.0598,0.069,0.0714,0.0714,0.0793,0.0805,0.0863,0.0888,0.0899,0.0989,0.1027,0.1107,0.1166,0.1206,0.1209,0.1236,0.1187,0.1198,0.1167,0.117,0.1052,0.1042,0.1182,0.118,0.1179,0,0.0437,0.0441,0.0534,0.0554,0.0592,0.0623,0.0651,0.0737,0.0763,0.0836,0.0839,0.0884,0.0925,0.0982,0.1053,0.1099,0.113,0.1085,0.1137,0.1115,0.1132,0.1131,0.1133,0.1074,0.1072,0.107,0.1069,0,0.0319,0.0357,0.0394,0.0445,0.0476,0.052,0.0569,0.058,0.0678,0.0703,0.0743,0.0775,0.0836,0.088,0.0937,0.0981,0.1041,0.1052,0.1049,0.1027,0.1,0.1016,0.1158,0.1055,0.1056,0.1057,0.1058,0.1059,0.0222,0.023,0.0298,0.0337,0.0382,0.0425,0.0442,0.0502,0.0537,0.0594,0.0643,0.0679,0.0743,0.0826,0.0865,0.0895,0.0925,0.0919,0.0919,0.0916,0.0908,0.0993,0.0906,0.0906,0.0907,0.0907,0.0908,0,0.011,0.0158,0.0193,0.0258,0.0289,0.0343,0.04,0.0422,0.0453,0.0507,0.0546,0.0593,0.0636,0.071,0.0759,0.0769,0.0798,0.0779,0.0781,0.079,0.0877,0.0877,0.0755,0.0755,0.0755,0.0755,0.0755,0.0755,0.0056,0.0074,0.012,0.0161,0.0209,0.0245,0.0273,0.0314,0.0358,0.0407,0.0443,0.0491,0.0554,0.0609,0.0651,0.0671,0.0687,0.0659,0.0689,0.0769,0.0784,0.0797,0.0797,0.0661,0.0661,0.0599,0.0599,0.0598]}]]